Location: Wingville
(42.9917°N, 90.4915°W)
Time: 21:42:22
(UTC+00:00)

EO-79 - Pass Details

Date: 03 July 2022
Orbit: 588 x 603 km, 98.0° (Epoch: 11 August)

Event Time Altitude Azimuth Distance (km) Brightness Sun altitude
Rises 09:20:53 0° 350° (N) 2,856 ? -10.3°
Reaches altitude 10° 09:25:16 10° 306° (NW) 1,950 ? -9.7°
Maximum altitude 09:25:43 10° 300° (WNW) 1,940 ? -9.7°
Drops below altitude 10° 09:26:09 10° 294° (WNW) 1,950 ? -9.6°
Enters shadow 09:28:34 - 265° (W) 2,301 ? -9.3°
